Regional Weather Roundup
Issued by NWS

Home | Current Version | Previous Version | Text Only | Print | Product List | Glossary On
Versions: 1 2 3 4 5 6 7 8 9 10 11 12 13 14 15 16 17 18 19 20 21 22 23 24 25 26 27 28 29 30 31 32 33 34 35 36 37 38 39 40 41 42 43 44 45 46 47 48 49 50
000
ASUS43 KFSD 290110
RWRSD

WEATHER ROUNDUP FOR SOUTH DAKOTA
NATIONAL WEATHER SERVICE SIOUX FALLS SD
800 PM CDT THU APR 28 2016

NOTE: "FAIR" INDICATES FEW OR NO CLOUDS BELOW 12,000 FEET WITH NO
SIGNIFICANT WEATHER AND/OR OBSTRUCTIONS TO VISIBILITY.


SDZ001>005-009-010-012>017-290200-
NORTHWEST AND NORTH CENTRAL SOUTH DAKOTA

CITY           SKY/WX    TMP DP  RH WIND       PRES   REMARKS
BUFFALO          N/A     39  34  82 SW5       30.06R
FAITH            N/A     36  30  79 W6        30.10R
MOBRIDGE       CLOUDY    50  37  61 E6        30.06R
$$

SDZ012>016-024>037-041>051-057-063-072>074-290200-
SOUTHWEST AND SOUTH CENTRAL SOUTH DAKOTA

CITY           SKY/WX    TMP DP  RH WIND       PRES   REMARKS
RAPID CTY ARPT CLOUDY    38  34  85 NE8       30.10R
PIERRE         CLOUDY    46  34  62 NE8       30.08R
CUSTER         LGT SNOW  31  28  89 E7        30.04R VSB 3/4 WCI  24
ELLSWORTH AFB  CLOUDY    38  36  91 NE8       30.10R
PHILIP         CLOUDY    43  36  76 N7        30.11R
PINE RIDGE     CLOUDY    40  34  79 NE5       30.08R
WINNER         CLOUDY    45  37  73 N7        30.08R
$$

SDZ004>011-016>023-039-040-290200-
NORTHEAST SOUTH DAKOTA

CITY           SKY/WX    TMP DP  RH WIND       PRES   REMARKS
ABERDEEN       CLOUDY    48  37  65 SE7       30.10R
WATERTOWN      CLOUDY    39  36  89 NE8       30.08R FOG
BROOKINGS      CLOUDY    36  34  92 NE9       30.08R
SISSETON         N/A     43  37  79 SW6       30.09S
$$

SDZ017-020-022-023-036>040-048>070-290200-
SOUTHEAST SOUTH DAKOTA

CITY           SKY/WX    TMP DP  RH WIND       PRES   REMARKS
SIOUX FALLS    CLOUDY    40  35  83 NE9       30.08R
HURON          CLOUDY    40  35  83 MISG      30.10R
CHAMBERLAIN    CLOUDY    45  40  82 NE3       30.09R
MITCHELL       CLOUDY    42  37  82 NE10      30.09R
YANKTON        CLOUDY    43  37  81 CALM      30.07R
$$

ABBREVIATIONS USED IN REMARKS
   TC - TEMPERATURE IN CELSIUS
  WCI - WIND CHILL INDEX
   HX - HEAT INDEX
  VSB - VISIBILITY





USA.gov is the U.S. government's official web portal to all federal, state and local government web resources and services.